Location: Unspecified
(0.0000°N, 0.0000°E)
Time: 16:06:48
(UTC+00:00)

Altair - Pass Details

Date: 28 September 2023
Orbit: 1501 x 1682 km, 47.2° (Epoch: 06 December)

Event Time Altitude Azimuth Distance (km) Brightness Sun altitude
Rises 22:56:28 0° 213° (SSW) 4,641 - -76.3°
Reaches altitude 10° 22:59:31 10° 210° (SSW) 3,669 - -77.0°
Maximum altitude 23:08:39 65° 129° (SE) 1,666 - -79.3°
Drops below altitude 10° 23:18:05 10° 49° (NE) 3,781 - -81.6°
Sets 23:21:15 0° 46° (NE) 4,790 - -82.3°
